Back to catalog

YAOGAN-36 03C

AliveMilitaryVLEO
NORAD 54376·PAYLOAD·🇨🇳 China

Launched Nov 27, 2022 from Xichang Satellite Launch Center

Loading…

Next Passes (next 24 hours)

TLE

FreshSource: Space-Track

Epoch: Sep 14, 2026, 08:40 UTC

1 54376U 22160E   26257.36119718  .00008100  00000-0  33570-3 0  9994
2 54376  35.0083 138.7753 0008004 127.2705 232.8741 15.23147544211654

Track YAOGAN-36 03C in real time with AllMySat

Download on the App Store